ORBCOMM FM 12

Satellite information

Favourite Embed

Satellite Type and Status

PAYLOADIN ORBIT

Key statistics

Satellite ORBCOMM FM 12 at a glance.

Uptime

10112

Days in orbit

Revolutions

≈ 14.5

Per day

Orbit

LEO

Low Earth Orbit

Inclination

45.0

Latest

Satellite identification and parameters

Extended collection of information and parameters for ORBCOMM FM 12.

Object identification

Identified? True

Debris? False

Object name: ORBCOMM FM 12

International designator: 1997-084D

Object number (NORAD): 25115

Object ID (CCSDS): 25115

Country: ORBITAL TELECOMMUNICATIONS SATELLITE (GLOBALSTAR) (ORB)

Current information (Y/N): Y

RCS size: MEDIUM

Orbital parameters

Period: 99.616 minutes

Inclination: 45.0159 deg

SMA: 7118.347 km

Apoapsis: 744.345 km

Periapsis: 736.08 km

RAAN: 22.0767 deg

Eccentricy: 0.00058056

Argument of periapsis: 212.6282 deg

Mean anomaly: 147.4211 deg

Mean motion: 14.45552933 rev/day

Mean motion (dot): 0.00001973 rev/day2

B* drag term: 0.00059422897 1/REarth

Two-line elements (TLE)

Creation date: Aug. 29, 2025, 2:15 a.m.

Reference frame: TEME

Reference center: EARTH

Epoch: Aug. 28, 2025, 8:06 p.m. UTC

TLE line 0: 0 ORBCOMM FM 12

TLE line 1: 1 25115U 97084D 25240.83764793 .00001973 00000-0 59423-3 0 9998

TLE line 2: 2 25115 45.0159 22.0767 0005806 212.6282 147.4211 14.45552933451782

Live tracking on map

Real-time ground track for satellite ORBCOMM FM 12.

In-orbit conjunctions

There are no conjunctions computed for ORBCOMM FM 12, at the moment. Check back to stay up to date, as we update our databases every day.

Go to all conjunctions

Associated space launch

ORBCOMM FM 12 was lifted into orbit during the mission ‘Pegasus XL HAPS | Orbcomm-A1 - A8’, on board a Pegasus XL HAPS space rocket.

The launch took place on Dec. 23, 1997, 7:11 p.m. from Wallops Flight Facility.

For more information about the launch, click the button.

Launch to space Pegasus XL HAPS | Orbcomm-A1 - A8
Pegasus XL HAPS | Orbcomm-A1 - A8

Agency: N/A

Status: Launch Successful

Launch date: Dec. 23, 1997, 7:11 p.m. UTC

Rocket: Pegasus XL HAPS

Launch pad: Wallops Flight Facility

Location: Air launch to orbit

...

Latest news about this satellite

There are no fresh news available about this satellite. Check back as we update our databases every day.


Newsletter sign-up

Weekly statistics, charts and insights to help you stay on top of the space industry.